Home   Weather   Fairfield   Past weeks
Flag for USA

Past Weather in Fairfield, Tennessee, USA — Yesterday and Last 2 Weeks

Now
41 °F

Overcast.


Feels Like: 38 °F
Forecast: 53 / 36 °F
Wind: 5 mph from North

Location: Asheville Regional Airport

Current Time: Dec 7, 2019 at 4:40:13 am

Latest Report: Dec 7, 2019 at 2:54 am


Visibility: 10 mi

Pressure: 30.21 "Hg

Humidity: 67%

Dew Point: 31 °F

Location of FairfieldLocation

Past Weather in Fairfield — Graph

°F

Fairfield Temperature Yesterday

Maximum temperature yesterday: 55 °F (at 2:54 pm)
Minimum temperature yesterday: 33 °F (at 12:54 am)
Average temperature yesterday: 43 °F

High & Low Weather Summary for the Past Weeks

 TemperatureHumidityPressure
High76 °F (Nov 27, 2:54 pm)93% (Nov 23, 1:54 am)30.30 "Hg (Nov 23, 1:54 am)
Low31 °F (Nov 25, 6:54 am)16% (Nov 27, 3:54 pm)29.45 "Hg (Dec 1, 1:54 pm)
Average46 °F65%29.93 "Hg
* Reported Nov 22 2:54 am — Dec 7 2:54 am, Fairfield. Weather by CustomWeather, © 2019

Note: Actual official high and low records may vary slightly from our data, if they occured in-between our weather recording intervals... More about our weather records

Fairfield Weather History for the Previous 24 Hours

Scroll right to see more
 ConditionsComfort  
Time TempWeatherWind HumidityBarometerVisibility
2:54 am
Sat, Dec 7
41 °FOvercast.5 mph67%30.21 "Hg10 mi
1:54 am37 °FClear.No wind79%30.20 "Hg10 mi
12:54 am38 °FClear.No wind79%30.19 "Hg10 mi
11:54 pm
Fri, Dec 6
40 °FPassing clouds.No wind77%30.20 "Hg10 mi
10:54 pm46 °FOvercast.5 mph56%30.20 "Hg10 mi
9:54 pm44 °FOvercast.No wind65%30.20 "Hg10 mi
8:54 pm45 °FClear.7 mph58%30.20 "Hg10 mi
7:54 pm46 °FPassing clouds.5 mph58%30.19 "Hg10 mi
6:54 pm48 °FClear.7 mph59%30.18 "Hg10 mi
5:54 pm51 °FOvercast.6 mph54%30.16 "Hg10 mi
4:54 pm52 °FOvercast.No wind53%30.15 "Hg10 mi
3:54 pm55 °FOvercast.No wind45%30.13 "Hg10 mi
2:54 pm55 °FOvercast.3 mph44%30.11 "Hg10 mi
1:54 pm53 °FOvercast.No wind47%30.13 "Hg10 mi
12:54 pm47 °FOvercast.No wind54%30.18 "Hg10 mi
11:54 am43 °FOvercast.No wind62%30.21 "Hg10 mi
10:54 am42 °FOvercast.No wind60%30.23 "Hg10 mi
8:54 am39 °FOvercast.No wind65%30.22 "Hg10 mi
7:54 am37 °FOvercast.3 mph73%30.19 "Hg10 mi
6:54 am37 °FOvercast.No wind70%30.19 "Hg10 mi
5:54 am37 °FOvercast.No wind70%30.19 "Hg10 mi
4:54 am35 °FOvercast.No wind72%30.18 "Hg10 mi
Weather by CustomWeather, © 2019

See weather overview

Advertising